Wind_Speed
4 4 8 9 8 9 10 11 12 9 13 15 22 25 22 21 20 18 17 17 17 17 18 20 22 24 25 28 30 31 33 34 35 35 35 36 36 36 37 37 36 36 36 36
8 13 8 3 6 8 8 10 15 18 20 19 18 19 15 13 12 12 13 14 15 17 18 21 22 24 27 28 30 31 33 34 35 35 36 36 36 36 37 38 38 38 37 38
14 11 8 6 6 8 10 15 16 17 18 16 15 14 12 11 10 12 14 16 18 19 21 23 26 27 29 30 32 33 34 34 35 36 37 38 39 39 39 40 40 39 39 40
9 6 7 8 9 10 15 15 14 14 16 18 20 21 14 9 9 13 17 18 21 23 25 26 28 30 31 32 33 34 34 35 37 39 40 41 41 41 41 42 41 41 41 41
4 7 7 7 7 9 11 10 12 15 21 25 25 20 11 11 14 17 20 22 24 26 27 28 29 30 31 33 35 36 36 37 38 40 42 43 43 43 43 43 42 41 40 40
5 6 6 5 5 7 7 10 16 19 22 25 21 16 11 16 21 24 25 25 26 27 28 28 29 30 31 33 35 36 37 38 39 41 42 43 43 43 42 42 40 39 38 38
5 3 6 7 8 9 6 10 17 23 25 23 18 14 11 19 24 26 28 27 27 27 27 28 30 31 32 33 34 36 37 38 39 40 41 41 41 41 40 40 39 38 37 37
11 9 8 11 11 11 8 10 15 18 21 23 20 18 18 21 23 24 25 26 26 27 29 30 31 31 33 34 35 36 37 38 39 39 39 39 39 39 39 39 39 38 38 38
9 10 12 12 11 11 9 10 11 11 11 15 21 22 21 22 23 23 24 26 27 28 29 30 31 32 34 35 35 36 37 38 39 39 39 39 39 38 38 38 39 39 40 41
8 8 9 14 11 12 11 10 9 6 8 8 12 20 22 23 24 25 26 27 28 29 30 31 32 34 34 36 36 37 38 38 38 38 39 39 38 38 38 38 38 39 41 43
9 7 6 9 11 11 11 10 9 7 8 8 10 22 24 25 25 25 26 28 30 31 32 33 34 35 36 37 38 38 39 39 39 39 39 39 39 39 39 39 40 41 42 43
10 7 6 10 10 9 10 11 10 10 10 10 10 23 25 26 25 26 28 29 31 32 33 34 35 37 38 38 39 40 40 40 40 40 40 40 40 40 40 41 42 43 44 45
11 9 8 12 10 10 11 14 14 12 11 11 10 21 27 28 29 29 30 32 33 34 35 36 37 38 39 40 41 42 42 42 42 42 42 41 41 42 42 43 43 44 45 46
12 11 8 9 11 13 13 14 15 15 13 14 16 21 25 27 28 29 31 32 34 35 37 38 39 40 40 41 42 42 42 42 43 43 43 43 42 42 43 43 44 45 46 48
12 10 10 10 11 12 13 14 16 16 16 17 19 22 26 27 28 30 31 33 35 36 38 39 40 41 41 42 42 43 43 43 43 43 44 43 43 43 43 44 45 46 48 49
14 11 11 9 9 12 14 16 17 18 18 19 20 23 26 28 29 30 31 33 35 36 38 39 41 42 42 43 43 43 44 44 44 44 44 44 43 43 44 45 46 47 48 48
14 12 10 8 8 10 15 16 19 21 20 22 23 25 26 27 29 30 31 34 35 37 39 40 41 42 43 44 44 44 45 45 45 45 45 44 44 44 44 45 46 47 48 47
12 12 11 9 8 10 14 18 20 21 21 22 23 25 26 28 31 32 33 36 37 39 40 41 42 43 44 44 45 46 46 47 47 46 45 44 44 44 44 46 47 47 47 45
17 16 14 12 10 10 16 22 20 21 22 20 21 23 25 28 32 36 36 38 40 41 41 42 43 43 44 44 45 46 47 48 47 46 45 45 44 44 44 46 46 46 45 43
20 19 17 16 15 13 15 19 21 22 24 22 23 24 26 28 30 34 37 39 39 40 41 41 42 43 44 45 46 47 48 48 47 46 45 44 43 44 44 45 45 44 42 41
22 21 20 21 19 17 21 21 21 23 24 24 25 26 27 29 31 34 36 38 39 40 41 42 43 45 46 46 47 48 48 48 47 46 45 43 43 43 44 44 43 42 41 39
19 19 20 22 20 21 26 25 24 23 23 24 25 26 28 30 33 35 38 40 40 41 42 42 43 45 47 48 48 49 49 48 47 46 44 43 42 43 44 43 41 40 39 37
20 21 22 21 22 26 27 26 25 24 24 25 26 27 29 32 34 36 38 40 40 41 42 42 43 45 47 48 49 49 49 48 47 45 43 42 42 42 43 41 39 38 37 36
21 25 25 22 21 24 26 26 26 26 26 27 27 29 31 33 35 37 38 40 40 41 41 42 43 45 47 48 49 50 49 48 46 45 43 42 41 41 42 40 38 37 35 34
20 23 24 24 23 24 24 26 27 28 28 28 29 31 32 34 36 37 39 40 41 41 42 43 44 45 47 48 49 50 50 48 46 44 42 41 41 41 41 39 37 35 34 32
23 23 24 24 24 26 26 27 28 29 29 29 31 32 34 35 37 39 40 41 41 41 42 43 44 46 47 48 49 50 50 48 46 44 42 40 40 40 40 38 36 34 33 30
Wind_Direction
28 285 255 230 221 268 313 328 309 285 287 283 291 296 294 292 292 292 292 292 291 290 290 290 290 289 289 289 288 288 290 291 292 292 292 292 292 292 291 291 290 289 288 288
264 264 267 16 335 299 291 285 278 282 288 290 293 297 297 298 301 303 303 302 300 299 299 298 297 295 294 293 291 292 293 294 294 294 294 294 294 293 292 291 290 289 288 287
308 336 350 337 283 263 254 250 259 281 295 295 289 279 284 294 304 310 311 311 310 308 307 304 302 300 299 298 297 297 297 298 298 297 296 297 296 295 293 292 290 289 287 285
303 313 311 296 277 267 263 261 264 274 286 281 274 262 264 289 307 317 318 316 315 312 310 308 306 305 305 304 303 302 302 302 302 301 301 301 300 298 296 295 293 292 290 287
342 327 307 299 291 288 292 291 283 282 275 270 274 280 274 334 338 336 328 323 319 316 314 313 312 310 309 308 307 307 306 306 305 304 303 303 302 300 299 297 295 293 290 288
68 11 345 320 307 292 291 296 293 289 287 294 305 320 332 350 342 336 332 327 325 322 320 318 316 315 313 311 310 310 309 308 307 306 305 304 302 300 299 297 295 293 290 288
46 354 337 324 305 294 299 308 310 322 335 343 351 350 7 349 341 335 332 331 330 327 325 323 322 320 318 316 314 312 311 310 309 308 306 304 302 300 298 296 294 292 290 289
356 340 333 319 312 309 317 313 317 330 336 338 343 349 348 341 337 335 333 332 332 330 329 328 326 324 322 320 318 317 315 313 312 310 307 305 302 299 297 295 292 290 288 286
334 329 322 324 318 313 302 296 302 320 337 343 341 334 336 337 335 336 336 335 335 333 331 329 328 327 325 324 322 320 318 316 313 311 308 305 302 299 296 293 290 288 286 284
320 325 319 330 335 326 322 316 312 325 334 344 336 316 322 330 333 336 335 335 335 333 332 331 330 328 326 325 323 321 319 317 315 312 309 306 302 298 295 292 290 288 286 285
319 327 311 320 327 328 323 319 323 325 317 329 330 307 321 324 330 331 331 332 331 331 331 331 330 329 327 325 324 322 320 318 317 314 311 308 304 301 298 295 293 291 289 287
320 323 306 287 301 325 322 321 325 330 333 339 337 306 316 322 327 329 329 329 330 330 331 330 330 329 327 326 324 323 321 320 318 316 314 310 307 304 301 299 296 295 293 290
318 315 321 323 328 336 332 323 322 321 330 323 312 297 312 319 325 327 327 328 329 330 330 330 330 329 327 326 325 323 322 321 320 318 316 312 309 306 304 301 300 298 297 294
310 308 304 307 311 307 307 312 310 312 311 303 297 299 307 315 321 323 325 327 329 330 331 330 329 329 328 327 325 324 323 322 321 319 317 314 311 309 307 305 304 303 301 298
305 297 291 291 291 296 302 304 305 308 309 309 308 310 311 320 322 325 328 329 331 332 332 331 331 330 330 329 327 326 326 324 323 321 319 316 314 312 310 309 308 307 305 303
309 300 292 291 296 297 308 311 310 312 312 313 314 313 316 322 324 327 330 331 332 333 333 333 333 333 333 331 330 329 328 327 325 323 321 319 317 315 314 313 312 311 309 307
304 310 305 293 292 304 308 304 307 311 313 314 315 316 320 322 324 329 332 331 333 335 336 337 337 337 336 334 333 332 331 330 328 326 324 321 320 319 318 317 316 315 314 311
312 315 314 307 307 313 306 303 310 311 311 314 316 319 323 327 328 332 334 334 336 338 340 340 339 339 338 337 335 334 333 332 330 328 326 324 323 322 321 321 320 319 318 316
318 320 319 315 311 304 298 303 311 313 313 317 318 320 325 330 330 332 338 338 339 340 341 340 340 340 340 339 338 336 336 334 332 330 328 326 325 325 325 325 324 323 322 320
307 312 314 316 315 311 303 298 314 315 314 323 321 325 328 330 332 334 337 338 338 339 339 340 340 341 341 341 340 339 337 336 334 331 330 329 328 328 328 328 328 327 326 324
304 315 316 315 316 311 297 305 309 309 313 318 320 322 325 328 331 334 336 337 337 338 339 340 340 341 342 342 341 340 339 337 335 333 332 331 330 331 331 331 330 331 330 328
300 298 296 299 299 289 293 300 302 304 307 311 314 317 321 325 329 332 335 336 337 338 339 339 340 341 341 342 342 341 340 338 337 336 334 333 333 333 333 333 333 333 333 333
295 295 294 295 291 290 294 298 299 301 305 309 312 315 319 323 327 330 333 335 335 336 338 339 340 340 341 341 341 342 341 340 339 337 336 336 336 335 336 336 335 336 336 335
288 291 300 304 297 291 293 294 297 300 304 307 310 313 317 321 325 328 330 332 333 334 336 338 339 340 340 341 341 342 342 341 340 339 338 338 338 338 338 338 338 338 338 338
295 296 301 306 304 299 297 296 297 299 302 305 309 312 316 320 323 325 328 330 331 332 333 335 337 339 340 341 341 342 342 343 342 341 340 340 340 340 341 341 341 340 340 341
296 296 299 302 302 301 301 299 300 301 304 306 309 312 315 318 321 323 325 328 330 330 331 332 335 337 339 340 341 342 342 343 343 342 341 342 343 343 343 343 343 342 342 344
Height
5867 5867 5865 5864 5867 5867 5868 5868 5865 5864 5866 5867 5865 5864 5862 5859 5857 5856 5855 5854 5853 5852 5851 5850 5849 5847 5845 5843 5841 5838 5836 5833 5829 5826 5823 5821 5818 5815 5811 5809 5807 5805 5803 5802
5866 5864 5862 5864 5867 5870 5872 5872 5868 5867 5867 5866 5863 5860 5857 5855 5854 5853 5852 5851 5850 5849 5848 5846 5844 5841 5839 5836 5834 5831 5828 5825 5821 5818 5815 5812 5810 5807 5803 5800 5798 5796 5794 5792
5865 5865 5865 5865 5869 5870 5870 5869 5868 5867 5865 5863 5861 5857 5853 5852 5851 5851 5849 5848 5846 5845 5843 5841 5838 5835 5832 5829 5825 5823 5819 5816 5813 5809 5806 5803 5800 5797 5793 5791 5788 5786 5784 5782
5866 5865 5866 5867 5867 5867 5866 5866 5866 5864 5862 5857 5853 5850 5847 5846 5846 5847 5847 5845 5843 5840 5838 5835 5831 5828 5825 5821 5817 5814 5811 5808 5804 5799 5796 5792 5789 5786 5783 5780 5777 5775 5773 5771
5866 5867 5866 5866 5866 5865 5864 5864 5863 5860 5856 5851 5844 5841 5839 5841 5841 5842 5842 5840 5838 5835 5832 5828 5825 5822 5818 5814 5810 5806 5802 5799 5795 5791 5786 5782 5778 5774 5771 5768 5766 5764 5762 5760
5864 5866 5867 5866 5866 5865 5864 5864 5861 5858 5855 5850 5844 5841 5839 5839 5840 5839 5838 5836 5833 5830 5827 5823 5820 5816 5812 5807 5803 5798 5794 5790 5786 5782 5777 5772 5768 5764 5761 5758 5755 5753 5751 5749
5865 5865 5866 5866 5865 5864 5863 5863 5860 5855 5850 5847 5843 5839 5838 5840 5840 5838 5835 5832 5829 5826 5822 5818 5814 5810 5806 5801 5796 5791 5787 5782 5777 5773 5768 5763 5759 5755 5751 5748 5746 5743 5742 5740
5866 5864 5865 5865 5864 5862 5862 5862 5860 5856 5854 5849 5843 5840 5841 5841 5840 5838 5834 5831 5827 5823 5818 5814 5809 5805 5800 5795 5789 5784 5779 5774 5769 5764 5759 5754 5750 5746 5742 5739 5736 5734 5732 5731
5868 5867 5866 5864 5862 5861 5861 5860 5859 5858 5856 5853 5847 5844 5842 5841 5839 5836 5832 5829 5824 5820 5815 5810 5805 5799 5794 5788 5783 5778 5772 5767 5761 5756 5751 5746 5741 5737 5734 5730 5727 5725 5722 5720
5868 5867 5866 5863 5862 5860 5859 5858 5856 5855 5855 5854 5852 5845 5843 5840 5837 5834 5830 5826 5822 5816 5811 5806 5800 5794 5788 5783 5777 5771 5765 5759 5754 5748 5742 5737 5732 5728 5724 5721 5718 5715 5712 5709
5867 5866 5866 5864 5861 5860 5858 5857 5855 5854 5852 5852 5851 5846 5842 5838 5835 5832 5828 5823 5818 5813 5807 5801 5795 5789 5782 5776 5770 5764 5757 5751 5745 5739 5733 5727 5722 5718 5713 5710 5706 5703 5700 5697
5866 5866 5864 5862 5859 5858 5857 5855 5854 5853 5851 5850 5850 5846 5840 5836 5832 5829 5825 5820 5814 5808 5802 5796 5789 5783 5776 5769 5762 5755 5749 5742 5736 5729 5723 5717 5712 5707 5702 5698 5694 5690 5686 5683
5865 5864 5864 5860 5859 5857 5857 5855 5853 5851 5850 5849 5848 5845 5837 5833 5829 5825 5820 5815 5810 5803 5797 5790 5783 5776 5769 5762 5754 5747 5740 5733 5726 5719 5713 5707 5701 5696 5690 5686 5681 5676 5672 5667
5863 5862 5863 5862 5859 5858 5857 5855 5852 5849 5848 5845 5844 5840 5835 5830 5827 5822 5817 5811 5805 5798 5791 5784 5777 5769 5762 5754 5747 5739 5731 5724 5717 5710 5703 5697 5690 5684 5679 5673 5667 5662 5656 5651
5861 5860 5859 5858 5857 5856 5854 5852 5849 5846 5844 5842 5839 5835 5831 5827 5823 5818 5812 5806 5799 5792 5785 5778 5770 5762 5754 5746 5738 5730 5723 5716 5708 5701 5693 5686 5680 5673 5666 5660 5654 5647 5640 5633
5857 5857 5856 5855 5854 5853 5852 5849 5846 5843 5840 5837 5835 5832 5827 5823 5818 5813 5808 5801 5794 5787 5779 5771 5763 5755 5747 5738 5730 5722 5715 5707 5699 5691 5683 5676 5669 5662 5654 5647 5640 5632 5625 5617
5855 5854 5853 5851 5851 5850 5849 5846 5843 5840 5837 5834 5830 5828 5823 5818 5814 5809 5803 5796 5789 5781 5773 5764 5756 5747 5739 5731 5723 5714 5706 5698 5690 5682 5674 5666 5658 5651 5643 5635 5627 5618 5610 5601
5854 5852 5851 5849 5848 5847 5847 5842 5840 5837 5833 5830 5826 5822 5818 5813 5807 5803 5798 5790 5782 5774 5766 5758 5750 5741 5733 5724 5715 5707 5698 5690 5681 5673 5664 5656 5648 5640 5632 5624 5615 5605 5596 5587
5851 5850 5848 5846 5845 5844 5842 5838 5836 5833 5829 5826 5822 5818 5814 5809 5803 5795 5791 5783 5776 5768 5760 5752 5744 5735 5727 5718 5709 5700 5691 5682 5673 5664 5656 5647 5639 5631 5622 5613 5603 5594 5584 5575
5849 5847 5845 5843 5841 5839 5838 5834 5831 5829 5824 5821 5817 5813 5809 5805 5800 5793 5785 5778 5771 5763 5755 5747 5739 5730 5722 5712 5703 5694 5684 5675 5666 5657 5648 5639 5630 5622 5613 5603 5594 5584 5574 5565
5845 5842 5840 5839 5837 5836 5832 5829 5828 5825 5821 5816 5812 5808 5804 5800 5795 5789 5781 5774 5766 5758 5750 5742 5734 5725 5716 5707 5697 5687 5678 5668 5659 5650 5641 5632 5623 5614 5605 5595 5585 5575 5566 5557
5844 5841 5839 5836 5834 5834 5827 5825 5823 5820 5816 5812 5808 5804 5800 5795 5789 5783 5776 5768 5761 5753 5745 5737 5728 5720 5710 5701 5691 5682 5672 5662 5653 5643 5634 5625 5616 5607 5597 5587 5578 5568 5559 5551
5839 5837 5834 5833 5831 5826 5822 5819 5816 5813 5810 5806 5803 5799 5794 5789 5783 5777 5770 5763 5755 5748 5740 5732 5723 5715 5705 5696 5686 5676 5666 5656 5647 5637 5628 5619 5610 5600 5591 5581 5571 5563 5554 5546
5834 5830 5827 5826 5824 5820 5816 5813 5810 5807 5804 5801 5797 5793 5788 5783 5777 5771 5764 5757 5750 5742 5735 5727 5718 5710 5701 5691 5681 5671 5661 5651 5641 5631 5622 5613 5604 5595 5585 5575 5566 5558 5550 5542
5828 5825 5822 5819 5817 5813 5811 5807 5804 5801 5798 5795 5791 5787 5782 5777 5771 5765 5758 5751 5744 5737 5729 5721 5713 5704 5695 5686 5676 5666 5656 5646 5636 5626 5617 5608 5600 5590 5581 5571 5562 5554 5546 5539
5822 5820 5817 5814 5811 5807 5805 5801 5798 5795 5792 5789 5785 5780 5775 5770 5764 5758 5752 5745 5738 5731 5723 5716 5707 5699 5690 5681 5671 5661 5651 5641 5632 5622 5613 5604 5596 5586 5577 5568 5559 5551 5544 5537